[[{"header":{"parameterUnit":"m.s-1","parameterCategory":2,"la1":30.2991,"la2":30.254,"lo1":-89.0895,"lo2":-89.0444,"dy":0.0017,"dx":0.0017,"nx":28,"ny":28,"refTime":"2025-04-04T21:00:00:Z","depth":"0","parameterNumber":2,"parameterNumberName":"U-component_of_CURRENTS"},"data":[0,0,0,0,0,0,0,0,0,0,0,0,0,0,0,0,0,0,0,0,0,0,0,0,0,0,0,0,0,0,0,0,0,0,0,0,0,0,0,0,0,0,0,0,0,0,0,0,0,0,0,0,0,0,0,0,0,0,0.2792,0.2792,0,0.2827,0.2828,0.2828,0.2818,0.2818,0.2817,0.2817,0.2812,0.2812,0.2813,0,0,0,0,0,0,0,0,0,0,0,0,0,0.2721,0.2722,0.2791,0.2792,0.2793,0.2827,0.2828,0.2828,0.2818,0.2818,0.2817,0.2816,0.2812,0.2812,0.2813,0,0,0,0,0,0,0,0,0,0,0,0,0,0.2751,0.2722,0.2791,0.2794,0.2795,0.2827,0.2828,0.2828,0.2818,0.2818,0.2817,0.2816,0.2812,0.2812,0.2813,0.283,0,0,0.2814,0.2815,0,0,0,0,0,0,0,0,0.2749,0.2753,0.2793,0.2794,0.2795,0.282,0.2801,0.2827,0.2818,0.2806,0.2817,0.2816,0.2813,0.2814,0.2819,0.2829,0.2829,0.2814,0.2815,0.2815,0.2815,0,0,0,0,0,0,0,0.2747,0.2752,0.2803,0.2794,0.2795,0.2796,0.2799,0.2806,0.281,0.2807,0.2807,0.2816,0.2813,0.2818,0.2818,0.2829,0.2814,0.2815,0.2815,0.2815,0.2885,0.2886,0,0,0,0,0,0,0.2749,0.275,0.2802,0.2804,0.2773,0.2798,0.2802,0.281,0.2811,0.2812,0.2817,0.2816,0.2818,0.2818,0.2818,0.2857,0.2815,0.2815,0.2816,0.2883,0.2885,0.2887,0,0,0,0,0,0,0.2747,0.2753,0.28,0.278,0.2786,0.28,0.281,0.2812,0.2821,0.2819,0.2818,0.2825,0.2817,0.2817,0.2837,0.2856,0.2815,0.2816,0.2881,0.2884,0.2886,0.2923,0,0,0,0,0,0,0.2745,0.2752,0.2759,0.278,0.2788,0.2826,0.2811,0.2813,0.2828,0.2827,0.2827,0.2825,0.2817,0.2836,0.2837,0.2856,0.2816,0.2879,0.2882,0.2885,0.292,0.2926,0.2932,0,0,0,0,0,0.2743,0.2756,0.2759,0.2766,0.2796,0.2828,0.2831,0.2837,0.283,0.2841,0.2843,0.2825,0.2856,0.2838,0.2839,0.2858,0.2878,0.2881,0.2885,0.2917,0.2925,0.2932,0,0,0,0,0,0,0.2727,0.2758,0.2761,0.2782,0.2806,0.2827,0.284,0.2844,0.2855,0.2853,0.2844,0.2844,0.287,0.2864,0.2844,0.2889,0.2865,0.2869,0.2889,0.2897,0.2903,0.2905,0.2817,0,0,0,0,0,0.2729,0.2748,0.2776,0.2794,0.2808,0.2825,0.2838,0.2845,0.286,0.2864,0.2863,0.2869,0.2886,0.289,0.2901,0.2923,0.2931,0.2938,0.2944,0.2949,0.2954,0.2988,0.2997,0.2898,0.2898,0.2898,0,0,0.2728,0.2748,0.2758,0.2792,0.281,0.2835,0.283,0.2858,0.2877,0.2862,0.2883,0.2892,0.2899,0.2926,0.2937,0.292,0.2985,0.2953,0.2957,0.296,0.2993,0.3002,0.3011,0.29,0.29,0.29,0,0,0.2738,0.2756,0.2774,0.2798,0.2833,0.2848,0.2859,0.2885,0.2895,0.2922,0.2921,0.2944,0.2957,0.2971,0.2979,0.3028,0.3019,0.3031,0.3057,0.3091,0.3099,0.3106,0.3137,0.3147,0.3029,0.3029,0.3029,0,0.2734,0.276,0.2785,0.281,0.283,0.2855,0.2879,0.2901,0.2928,0.2943,0.2933,0.298,0.2981,0.3025,0.304,0.3041,0.3057,0.3025,0.3098,0.3105,0.3112,0.3142,0.3152,0.3031,0.3031,0.3031,0.3031,0,0.2757,0.2779,0.2795,0.2833,0.286,0.2887,0.2923,0.2949,0.2962,0.298,0.3025,0.3038,0.3063,0.3073,0.3068,0.3123,0.3118,0.3104,0.3075,0.3124,0.3153,0.3162,0.3035,0.3034,0.3033,0.3033,0,0,0.2742,0.2798,0.2802,0.2817,0.2873,0.2892,0.2941,0.2986,0.3014,0.3044,0.3081,0.3117,0.3125,0.3136,0.3142,0.317,0.3231,0.3156,0.3157,0.318,0.3308,0.3313,0.3324,0.3227,0.3228,0.323,0.3311,0,0.2748,0.2785,0.2819,0.2854,0.2875,0.292,0.2957,0.3003,0.3043,0.3086,0.3122,0.3158,0.315,0.3165,0.3196,0.3226,0.3257,0.321,0.3263,0.3265,0.3258,0.3336,0.33,0.337,0.3321,0.3323,0.3324,0,0.2752,0.2777,0.2807,0.2855,0.2869,0.2893,0.2957,0.2996,0.3075,0.311,0.3166,0.3194,0.3256,0.3232,0.3314,0.3285,0.3301,0.3318,0.3321,0.3319,0.3289,0.3314,0.339,0.3355,0.3339,0.3337,0.3336,0,0.271,0.2764,0.2781,0.28,0.2863,0.2882,0.2917,0.2994,0.3043,0.3128,0.3177,0.3246,0.3291,0.3329,0.3377,0.3347,0.3463,0.3422,0.3445,0.3445,0.3421,0.3417,0.3463,0.3477,0.3477,0.3476,0.3476,0,0.2695,0.2708,0.2758,0.2765,0.2788,0.2844,0.2883,0.2942,0.3038,0.3093,0.3178,0.3245,0.3318,0.3393,0.341,0.3479,0.3494,0.3474,0.3477,0.3435,0.3431,0.3402,0.3369,0.3479,0.3479,0.3478,0.3478,0,0.2642,0.2677,0.2696,0.275,0.2765,0.2777,0.286,0.2894,0.3,0.3081,0.3115,0.3269,0.3374,0.345,0.353,0.3532,0.3512,0.3593,0.3544,0.354,0.3504,0.3474,0.3337,0.3248,0.3628,0.3629,0.3629,0,0.2618,0.2621,0.2665,0.2669,0.2689,0.272,0.2743,0.2855,0.2907,0.3086,0.3123,0.3282,0.3382,0.3542,0.3593,0.366,0.3545,0.3638,0.357,0.3524,0.3493,0.3296,0.3215,0.3556,0.3556,0.3556,0.3556,0,0.2569,0.2581,0.2593,0.2603,0.2616,0.2639,0.2688,0.2734,0.2863,0.2956,0.3094,0.3202,0.341,0.3507,0.3632,0.3652,0.3506,0.3638,0.3607,0.3465,0.3238,0.3146,0.3477,0.3556,0.3556,0.3556,0.3556,0.3556,0.2521,0.2513,0.2523,0.2524,0.2537,0.2543,0.2534,0.2618,0.2697,0.282,0.2985,0.3128,0.3398,0.3592,0.3583,0.3617,0.35,0.3562,0.3539,0.3349,0.3227,0.3563,0.3631,0.3632,0.3632,0.3632,0.3633,0,0.2452,0.2447,0.2444,0.243,0.24,0.2445,0.2478,0.2468,0.2514,0.2702,0.2822,0.3114,0.3301,0.3479,0.3643,0.3556,0.3348,0.3482,0.3217,0.3149,0.3498,0.3466,0.3482,0.3482,0.3482,0.3482,0.3482,0.3482,0.2413,0.2378,0.2372,0.2293,0.228,0.2217,0.2213,0.2237,0.2345,0.2501,0.2671,0.2859,0.3267,0.3581,0.3604,0.3513,0.3254,0.3132,0.3059,0.3372,0.3377,0.3382,0.3344,0.3335,0.3335,0.2602,0.2597,0.2594]},{"header":{"parameterUnit":"m.s-1","parameterCategory":2,"la1":30.2991,"la2":30.254,"lo1":-89.0895,"lo2":-89.0444,"dy":0.0017,"dx":0.0017,"nx":28,"ny":28,"refTime":"2025-04-04T21:00:00:Z","depth":"0","parameterNumber":3,"parameterNumberName":"V-component_of_CURRENTS"},"data":[0,0,0,0,0,0,0,0,0,0,0,0,0,0,0,0,0,0,0,0,0,0,0,0,0,0,0,0,0,0,0,0,0,0,0,0,0,0,0,0,0,0,0,0,0,0,0,0,0,0,0,0,0,0,0,0,0,0,0.0184,0.0184,0,0.0109,0.0108,0.0107,0.0057,0.0057,0.0057,0.0057,-0.004,-0.0042,-0.0045,0,0,0,0,0,0,0,0,0,0,0,0,0,0.0221,0.0221,0.0184,0.0184,0.0183,0.0109,0.0108,0.0107,0.0057,0.0057,0.0057,0.0057,-0.0039,-0.0042,-0.0045,0,0,0,0,0,0,0,0,0,0,0,0,0,0.0179,0.022,0.0185,0.0151,0.0148,0.011,0.0108,0.0106,0.0057,0.0057,0.0057,0.0057,-0.0038,-0.0042,-0.0046,-0.0066,0,0,-0.0057,-0.0059,0,0,0,0,0,0,0,0,0.0181,0.0177,0.0157,0.0154,0.015,0.0095,0.0085,0.0049,0.0057,0.0089,0.0057,0.0057,0.0005,-0.0002,-0.002,-0.007,-0.0075,-0.0057,-0.006,-0.0061,-0.0062,0,0,0,0,0,0,0,0.0184,0.018,0.0152,0.0156,0.0152,0.0118,0.0112,0.0078,0.0046,0.0086,0.0083,0.0079,0.0002,-0.0016,-0.0022,-0.0076,-0.0057,-0.006,-0.0063,-0.0064,-0.0141,-0.0141,0,0,0,0,0,0,0.0203,0.0183,0.0154,0.015,0.0168,0.0118,0.0111,0.011,0.0047,0.0038,0.0079,0.0077,-0.001,-0.0018,-0.0026,-0.0033,-0.0061,-0.0065,-0.0067,-0.0141,-0.0141,-0.0141,0,0,0,0,0,0,0.0204,0.0201,0.0157,0.0167,0.0159,0.0119,0.0117,0.0109,0.0095,0.0042,0.0032,0.0075,-0.001,-0.0021,-0.0048,-0.0038,-0.0066,-0.007,-0.0142,-0.0141,-0.0141,-0.0061,0,0,0,0,0,0,0.0205,0.0202,0.0206,0.0168,0.0159,0.0146,0.0117,0.0108,0.0094,0.009,0.0035,0.0026,-0.0011,-0.0042,-0.0052,-0.0044,-0.0073,-0.0142,-0.0141,-0.0141,-0.0064,-0.0058,-0.0053,0,0,0,0,0,0.0207,0.0219,0.0207,0.0203,0.0167,0.0147,0.0139,0.0107,0.0094,0.0093,0.0057,0.0028,-0.0047,-0.0045,-0.0056,-0.0049,-0.0142,-0.0142,-0.0141,-0.0066,-0.0059,-0.0053,0,0,0,0,0,0,0.0236,0.0214,0.02,0.0205,0.0182,0.014,0.0137,0.0115,0.0084,0.0082,0.003,0.0018,-0.0004,-0.0038,-0.0035,-0.0071,-0.0099,-0.0101,-0.0039,-0.0032,-0.0027,-0.0003,-0.0076,0,0,0,0,0,0.0246,0.025,0.022,0.0223,0.0216,0.0177,0.0165,0.0145,0.0114,0.01,0.0062,0.0022,-0.0012,-0.0029,-0.0066,-0.0084,-0.0115,-0.0088,-0.0083,-0.0078,-0.0066,-0.0105,-0.0102,-0.0139,-0.0139,-0.0139,0,0,0.0257,0.0247,0.0248,0.0229,0.0209,0.0209,0.0169,0.016,0.0159,0.0095,0.0083,0.0039,-0.0014,-0.0034,-0.0047,-0.006,-0.0083,-0.0077,-0.0072,-0.0064,-0.0104,-0.01,-0.0097,-0.0139,-0.0139,-0.0139,0,0,0.0289,0.0275,0.0291,0.0279,0.0259,0.0237,0.0239,0.0204,0.0187,0.0167,0.0123,0.0091,0.0036,0.0005,-0.002,-0.0007,-0.0054,-0.0023,0.0026,-0.0011,-0.0008,-0.0005,-0.0034,-0.0035,-0.0018,-0.0018,-0.0018,0,0.0304,0.0321,0.0291,0.0304,0.0304,0.0256,0.0275,0.0249,0.0209,0.0203,0.0176,0.0102,0.0057,0.0034,0.0037,0.0008,-0.002,0.0008,-0.0002,-0.0001,0.0001,-0.0029,-0.0031,-0.0014,-0.0015,-0.0015,-0.0015,0,0.0349,0.036,0.037,0.0372,0.0366,0.0373,0.0342,0.0332,0.0303,0.0276,0.0246,0.018,0.014,0.0115,0.0078,0.0065,0.0041,0.001,-0.0013,0.001,-0.0024,-0.0027,-0.0009,-0.001,-0.0011,-0.0012,0,0,0.0388,0.0401,0.0404,0.0422,0.0406,0.0409,0.041,0.0399,0.0407,0.0352,0.0354,0.0283,0.0246,0.0215,0.0161,0.0125,0.0105,0.0078,0.0074,0.006,0.0028,0.0017,0.0012,0.007,0.007,0.007,0.0004,0,0.0433,0.0479,0.0469,0.0511,0.0533,0.05,0.0507,0.049,0.0461,0.0448,0.0376,0.0352,0.0284,0.0267,0.0221,0.0134,0.0098,0.0126,-0.0001,-0.0004,-0.0009,0.0009,0.0043,-0.0012,0.0001,-0.0,-0.0001,0,0.0483,0.0509,0.056,0.059,0.0597,0.0609,0.062,0.0619,0.0584,0.0565,0.0524,0.0464,0.0407,0.0342,0.0215,0.0235,0.0145,0.0071,0.0066,0.0028,-0.0022,-0.0036,-0.0019,-0.0165,-0.0006,-0.0006,-0.0005,0,0.0533,0.0575,0.0621,0.063,0.065,0.0665,0.0669,0.0653,0.0675,0.0637,0.0647,0.0557,0.0523,0.0397,0.0247,0.023,0.0104,0.006,-0.0035,-0.0037,-0.0046,-0.0048,-0.0175,-0.0026,-0.0026,-0.0026,-0.0026,0,0.0588,0.0625,0.0648,0.0672,0.0731,0.0719,0.0771,0.0762,0.0768,0.0806,0.0711,0.0722,0.0535,0.0438,0.0285,0.0125,0.0132,-0.0017,-0.0052,-0.0017,-0.0016,-0.0175,-0.027,-0.0028,-0.0028,-0.0027,-0.0027,0,0.0634,0.0647,0.0704,0.0739,0.0756,0.0794,0.0849,0.0888,0.088,0.0926,0.0923,0.0851,0.0729,0.0537,0.0337,0.0191,-0.0066,-0.0036,0.0023,-0.0004,-0.0229,-0.032,-0.0509,-0.0596,-0.0148,-0.0149,-0.0149,0,0.0662,0.0696,0.0756,0.0796,0.0814,0.0871,0.0917,0.0939,0.0994,0.1012,0.1048,0.0953,0.0917,0.0625,0.0347,0.0087,-0.0081,-0.0064,-0.0094,-0.0228,-0.0357,-0.0436,-0.0502,-0.0077,-0.0077,-0.0076,-0.0076,0,0.0717,0.0732,0.0779,0.0861,0.0919,0.0998,0.1067,0.1135,0.1166,0.1219,0.1267,0.1242,0.0973,0.0748,0.0385,0.0183,-0.0172,-0.0071,-0.0228,-0.0322,-0.0399,-0.0502,-0.0047,-0.0075,-0.0076,-0.0076,-0.0076,-0.0076,0.0753,0.0794,0.0851,0.0931,0.1005,0.1107,0.1184,0.1276,0.1386,0.1483,0.1452,0.1489,0.1145,0.0669,0.0349,-0.0153,-0.0189,-0.0287,-0.039,-0.0459,-0.0539,-0.0076,-0.0135,-0.0135,-0.0135,-0.0136,-0.0136,0,0.0798,0.0843,0.0918,0.1012,0.1101,0.1134,0.1274,0.1366,0.1508,0.1646,0.1709,0.1654,0.1191,0.071,0.0037,-0.0358,-0.0545,-0.0589,-0.0693,-0.0749,-0.0342,-0.0332,-0.0412,-0.0412,-0.0412,-0.0412,-0.0412,-0.0412,0.0821,0.0893,0.0929,0.1071,0.1144,0.1274,0.1359,0.1505,0.165,0.1865,0.1992,0.2062,0.1793,0.0445,-0.0416,-0.0645,-0.0946,-0.1031,-0.1194,-0.0904,-0.0883,-0.0863,-0.0876,-0.1069,-0.107,-0.1539,-0.1544,-0.1548]}],[{"header":{"parameterUnit":"m.s-1","parameterCategory":2,"la1":30.2991,"la2":30.254,"lo1":-89.0895,"lo2":-89.0444,"dy":0.0017,"dx":0.0017,"nx":28,"ny":28,"refTime":"2025-04-04T21:00:00:Z","depth":"2","parameterNumber":2,"parameterNumberName":"U-component_of_CURRENTS"},"data":[0,0,0,0,0,0,0,0,0,0,0,0,0,0,0,0,0,0,0,0,0,0,0,0,0,0,0,0,0,0,0,0,0,0,0,0,0,0,0,0,0,0,0,0,0,0,0,0,0,0,0,0,0,0,0,0,0,0,0.2714,0.2715,0,0.275,0.275,0.275,0.2745,0.2745,0.2745,0.2744,0.2746,0.2746,0.2747,0,0,0,0,0,0,0,0,0,0,0,0,0,0.2647,0.2648,0.2714,0.2715,0.2715,0.275,0.275,0.275,0.2745,0.2745,0.2745,0.2744,0.2746,0.2746,0.2747,0,0,0,0,0,0,0,0,0,0,0,0,0,0.2676,0.2648,0.2714,0.2719,0.272,0.275,0.275,0.275,0.2745,0.2745,0.2744,0.2744,0.2746,0.2746,0.2747,0.276,0,0,0.2748,0.2749,0,0,0,0,0,0,0,0,0.2674,0.2678,0.2718,0.2719,0.272,0.2745,0.2727,0.2753,0.2746,0.2733,0.2744,0.2744,0.2745,0.2745,0.275,0.276,0.276,0.2748,0.2749,0.2749,0.2749,0,0,0,0,0,0,0,0.2672,0.2677,0.2725,0.2719,0.272,0.2722,0.2725,0.2732,0.2738,0.2734,0.2734,0.2743,0.2745,0.2749,0.275,0.276,0.2748,0.2749,0.2749,0.2749,0.282,0.2821,0,0,0,0,0,0,0.2674,0.2675,0.2724,0.2727,0.2699,0.2724,0.2727,0.2735,0.2739,0.274,0.2743,0.2743,0.2748,0.2749,0.275,0.2792,0.2749,0.2749,0.275,0.2818,0.282,0.2822,0,0,0,0,0,0,0.2672,0.2678,0.2723,0.2704,0.271,0.2726,0.2735,0.2736,0.2748,0.2747,0.2747,0.2754,0.2748,0.2749,0.277,0.2791,0.275,0.275,0.2816,0.2819,0.2821,0.286,0,0,0,0,0,0,0.267,0.2677,0.2684,0.2704,0.2711,0.2748,0.2736,0.2737,0.2755,0.2754,0.2756,0.2756,0.2748,0.2769,0.277,0.2791,0.2751,0.2815,0.2818,0.282,0.2857,0.2863,0.2869,0,0,0,0,0,0.2668,0.2681,0.2684,0.2691,0.272,0.275,0.2753,0.2761,0.2756,0.2767,0.2772,0.2756,0.2788,0.2771,0.2772,0.2793,0.2813,0.2817,0.282,0.2854,0.2862,0.2869,0,0,0,0,0,0,0.2654,0.2683,0.2687,0.2707,0.2731,0.275,0.2764,0.2768,0.2781,0.2782,0.2773,0.2774,0.2802,0.2796,0.2777,0.2825,0.2799,0.2803,0.2825,0.2833,0.2839,0.284,0.2751,0,0,0,0,0,0.2656,0.2674,0.2701,0.2718,0.2732,0.2749,0.2762,0.2771,0.2786,0.2791,0.2792,0.2801,0.2818,0.2823,0.2835,0.2857,0.2864,0.2874,0.288,0.2885,0.289,0.2923,0.2932,0.2833,0.2833,0.2833,0,0,0.2656,0.2675,0.2685,0.2717,0.2735,0.2759,0.2756,0.2784,0.2803,0.279,0.2814,0.2823,0.2831,0.2859,0.2871,0.2855,0.292,0.289,0.2894,0.2895,0.2927,0.2937,0.2945,0.2836,0.2835,0.2835,0,0,0.2665,0.2684,0.2701,0.2724,0.2759,0.2774,0.2785,0.2811,0.2823,0.285,0.2851,0.2875,0.2891,0.2905,0.2913,0.2962,0.2954,0.2967,0.2994,0.3027,0.3035,0.3042,0.3071,0.3081,0.2966,0.2966,0.2966,0,0.2663,0.2687,0.2711,0.2736,0.2756,0.2782,0.2805,0.2827,0.2855,0.2871,0.2863,0.2912,0.2914,0.2958,0.2975,0.2975,0.2991,0.2962,0.3034,0.3041,0.3048,0.3076,0.3086,0.2968,0.2968,0.2968,0.2968,0,0.2684,0.2706,0.2722,0.2759,0.2785,0.2813,0.2848,0.2875,0.289,0.2909,0.2956,0.297,0.2996,0.3007,0.3003,0.3058,0.3054,0.3039,0.3011,0.306,0.3087,0.3096,0.2972,0.2971,0.297,0.297,0,0,0.2669,0.2725,0.2728,0.2744,0.2799,0.2818,0.2867,0.2911,0.294,0.2973,0.3011,0.3048,0.3058,0.307,0.3077,0.3104,0.3165,0.3092,0.3093,0.3115,0.3241,0.3239,0.3249,0.3163,0.3164,0.3166,0.3243,0,0.2676,0.2712,0.2745,0.2781,0.2802,0.2847,0.2883,0.2929,0.297,0.3015,0.3051,0.3089,0.3082,0.31,0.3131,0.316,0.3191,0.3145,0.3196,0.3198,0.3185,0.326,0.3011,0.3059,0.3252,0.3254,0.3255,0,0.2679,0.2704,0.2734,0.2783,0.2797,0.2822,0.2887,0.2926,0.3004,0.304,0.3097,0.3126,0.3188,0.3165,0.3246,0.3219,0.3235,0.3251,0.3254,0.3244,0.3214,0.3042,0.3069,0.3271,0.327,0.3268,0.3267,0,0.2639,0.2693,0.2712,0.273,0.2793,0.2814,0.285,0.2926,0.2975,0.306,0.3109,0.3178,0.3224,0.3261,0.3308,0.328,0.3391,0.3352,0.3367,0.3366,0.316,0.3139,0.3404,0.3404,0.3404,0.3404,0.3404,0,0.2625,0.2639,0.269,0.2698,0.2724,0.2779,0.282,0.2879,0.2974,0.3028,0.3113,0.3178,0.3251,0.3324,0.334,0.3402,0.3421,0.3394,0.3396,0.317,0.315,0.333,0.332,0.3407,0.3406,0.3406,0.3405,0,0.2574,0.261,0.2631,0.2686,0.2703,0.2717,0.2801,0.2835,0.294,0.3021,0.3055,0.3204,0.3304,0.3378,0.3454,0.3452,0.3498,0.3507,0.3246,0.3217,0.3438,0.343,0.353,0.3531,0.3531,0.3532,0.3532,0,0.2551,0.2556,0.2603,0.2608,0.263,0.2665,0.2688,0.2799,0.285,0.3025,0.3061,0.3214,0.3303,0.3453,0.3469,0.3523,0.3547,0.3316,0.3221,0.3464,0.3456,0.3446,0.3437,0.2957,0.2953,0.2949,0.2946,0,0.2504,0.2518,0.2532,0.2545,0.2562,0.2586,0.2636,0.2681,0.2807,0.2896,0.3026,0.3125,0.3292,0.3265,0.3366,0.3348,0.3291,0.3251,0.3568,0.2982,0.2936,0.2924,0.2931,0.2915,0.2918,0.2921,0.2922,0.2924,0.2459,0.2452,0.2466,0.247,0.2485,0.2492,0.2484,0.2559,0.2633,0.2728,0.2889,0.295,0.3048,0.3091,0.3031,0.2988,0.3209,0.306,0.3065,0.3075,0.3014,0.2973,0.2947,0.295,0.2953,0.2956,0.2958,0,0.239,0.2389,0.239,0.2379,0.2349,0.2399,0.243,0.2403,0.2434,0.2561,0.2651,0.2523,0.2567,0.2644,0.2557,0.2607,0.2509,0.2486,0.2325,0.2363,0.2395,0.2291,0.2036,0.2033,0.2029,0.2026,0,0,0.2352,0.2319,0.2313,0.2238,0.2232,0.2165,0.2161,0.2152,0.2207,0.2206,0.2227,0.2441,0.2597,0.2265,0.2264,0.2131,0.2205,0.2046,0.2802,0.2652,0.2678,0.2768,0.2659,0,0,0,0,0]},{"header":{"parameterUnit":"m.s-1","parameterCategory":2,"la1":30.2991,"la2":30.254,"lo1":-89.0895,"lo2":-89.0444,"dy":0.0017,"dx":0.0017,"nx":28,"ny":28,"refTime":"2025-04-04T21:00:00:Z","depth":"2","parameterNumber":3,"parameterNumberName":"V-component_of_CURRENTS"},"data":[0,0,0,0,0,0,0,0,0,0,0,0,0,0,0,0,0,0,0,0,0,0,0,0,0,0,0,0,0,0,0,0,0,0,0,0,0,0,0,0,0,0,0,0,0,0,0,0,0,0,0,0,0,0,0,0,0,0,0.0108,0.0108,0,0.0035,0.0034,0.0033,-0.0016,-0.0016,-0.0017,-0.0017,-0.0111,-0.0113,-0.0116,0,0,0,0,0,0,0,0,0,0,0,0,0,0.0143,0.0143,0.0109,0.0108,0.0107,0.0035,0.0034,0.0033,-0.0016,-0.0016,-0.0017,-0.0017,-0.011,-0.0113,-0.0116,0,0,0,0,0,0,0,0,0,0,0,0,0,0.0102,0.0143,0.0109,0.0076,0.0072,0.0035,0.0034,0.0032,-0.0016,-0.0016,-0.0017,-0.0017,-0.0109,-0.0113,-0.0116,-0.0136,0,0,-0.0128,-0.0129,0,0,0,0,0,0,0,0,0.0105,0.0101,0.0081,0.0078,0.0074,0.0021,0.0011,-0.0024,-0.0016,0.0015,-0.0017,-0.0017,-0.0067,-0.0074,-0.0091,-0.014,-0.0144,-0.0128,-0.013,-0.0132,-0.0133,0,0,0,0,0,0,0,0.0108,0.0103,0.0077,0.0081,0.0076,0.0043,0.0038,0.0004,-0.0027,0.0012,0.0009,0.0005,-0.007,-0.0088,-0.0094,-0.0146,-0.0128,-0.0131,-0.0133,-0.0135,-0.0208,-0.0207,0,0,0,0,0,0,0.0126,0.0106,0.0079,0.0075,0.0092,0.0043,0.0037,0.0036,-0.0026,-0.0035,0.0005,0.0003,-0.0081,-0.0089,-0.0097,-0.0103,-0.0132,-0.0135,-0.0137,-0.0208,-0.0208,-0.0207,0,0,0,0,0,0,0.0127,0.0124,0.0082,0.0091,0.0083,0.0044,0.0042,0.0035,0.0022,-0.0031,-0.004,0.0002,-0.0082,-0.0092,-0.0118,-0.0108,-0.0137,-0.014,-0.0208,-0.0208,-0.0207,-0.0129,0,0,0,0,0,0,0.0128,0.0125,0.013,0.0092,0.0084,0.0071,0.0043,0.0033,0.002,0.0017,-0.0037,-0.0046,-0.0083,-0.0112,-0.0122,-0.0114,-0.0143,-0.0208,-0.0208,-0.0208,-0.0131,-0.0126,-0.0121,0,0,0,0,0,0.0129,0.0142,0.013,0.0127,0.0092,0.0072,0.0065,0.0033,0.0021,0.002,-0.0015,-0.0044,-0.0116,-0.0115,-0.0126,-0.0119,-0.0209,-0.0208,-0.0208,-0.0134,-0.0127,-0.0121,0,0,0,0,0,0,0.0158,0.0137,0.0124,0.0129,0.0107,0.0065,0.0063,0.0041,0.0011,0.001,-0.0042,-0.0053,-0.0074,-0.0107,-0.0104,-0.0139,-0.0167,-0.0169,-0.0108,-0.0101,-0.0096,-0.0074,-0.0146,0,0,0,0,0,0.0169,0.0173,0.0144,0.0147,0.0141,0.0103,0.0091,0.0072,0.0042,0.0028,-0.0009,-0.0048,-0.0082,-0.0098,-0.0134,-0.0151,-0.0182,-0.0155,-0.0149,-0.0144,-0.0134,-0.0174,-0.0171,-0.0206,-0.0206,-0.0206,0,0,0.018,0.017,0.0171,0.0154,0.0134,0.0134,0.0095,0.0087,0.0086,0.0023,0.0011,-0.003,-0.0083,-0.0102,-0.0114,-0.0127,-0.015,-0.0144,-0.0139,-0.0132,-0.0173,-0.017,-0.0167,-0.0205,-0.0205,-0.0205,0,0,0.0212,0.0199,0.0214,0.0203,0.0185,0.0162,0.0165,0.0131,0.0115,0.0096,0.0052,0.0022,-0.0031,-0.0063,-0.0088,-0.0074,-0.0121,-0.0088,-0.0041,-0.008,-0.0077,-0.0075,-0.0104,-0.0105,-0.0084,-0.0084,-0.0084,0,0.0227,0.0243,0.0215,0.0227,0.0227,0.0182,0.0199,0.0175,0.0136,0.0129,0.0105,0.0032,-0.0012,-0.0035,-0.0032,-0.006,-0.0088,-0.0059,-0.0071,-0.007,-0.0069,-0.0099,-0.0102,-0.008,-0.0081,-0.0081,-0.0081,0,0.027,0.0282,0.0291,0.0293,0.0287,0.0295,0.0265,0.0255,0.0228,0.0201,0.0172,0.0108,0.0068,0.0045,0.0009,-0.0005,-0.0029,-0.0059,-0.0083,-0.006,-0.0094,-0.0098,-0.0075,-0.0076,-0.0077,-0.0078,0,0,0.0309,0.0321,0.0324,0.0341,0.0327,0.0329,0.033,0.0318,0.0326,0.0273,0.0273,0.0206,0.017,0.014,0.0087,0.0051,0.003,0.0006,0.0002,-0.0013,-0.0048,-0.0059,-0.0065,-0.0004,-0.0004,-0.0004,-0.0071,0,0.0352,0.0396,0.0387,0.0427,0.0448,0.0416,0.0422,0.0405,0.0377,0.0364,0.0293,0.027,0.0206,0.019,0.0144,0.0059,0.0023,0.0052,-0.0076,-0.0079,-0.0084,-0.0068,-0.0053,-0.0111,-0.0075,-0.0076,-0.0076,0,0.04,0.0425,0.0474,0.0502,0.0509,0.052,0.053,0.0529,0.0493,0.0474,0.0434,0.0377,0.032,0.0259,0.0133,0.0154,0.0066,-0.0006,-0.0011,-0.005,-0.0097,-0.013,-0.0119,-0.0083,-0.0083,-0.0082,-0.0082,0,0.0447,0.0487,0.0532,0.0541,0.0559,0.0574,0.0579,0.0562,0.0582,0.0544,0.0554,0.0464,0.0431,0.0307,0.0161,0.0147,0.0019,-0.0022,-0.0116,-0.0118,-0.0143,-0.0146,-0.0109,-0.0109,-0.0109,-0.0109,-0.0109,0,0.0499,0.0535,0.0558,0.0582,0.0639,0.0628,0.0677,0.0667,0.0672,0.0707,0.0615,0.0624,0.0441,0.0345,0.0196,0.0038,0.0044,-0.0099,-0.0134,-0.0115,-0.0115,-0.0125,-0.0126,-0.0111,-0.0111,-0.011,-0.011,0,0.0544,0.0557,0.0613,0.0646,0.0663,0.07,0.0753,0.079,0.0781,0.0823,0.0821,0.0748,0.0627,0.044,0.0242,0.0099,-0.0064,-0.0124,-0.0083,-0.0112,-0.0184,-0.0181,-0.0232,-0.0233,-0.0234,-0.0234,-0.0235,0,0.0571,0.0604,0.0663,0.0703,0.072,0.0776,0.082,0.0841,0.0892,0.0906,0.0939,0.0845,0.0803,0.0514,0.024,-0.0015,-0.0054,-0.0173,-0.0201,-0.0167,-0.0196,-0.0191,-0.0187,-0.0206,-0.0207,-0.0207,-0.0207,0,0.0623,0.0639,0.0684,0.0766,0.0822,0.0898,0.0964,0.1028,0.1056,0.1104,0.1145,0.1115,0.0846,0.0595,0.024,0.0059,-0.0133,-0.0185,-0.0165,-0.0171,-0.0147,-0.0174,-0.017,-0.0209,-0.0209,-0.0209,-0.0208,-0.0208,0.0658,0.0698,0.0754,0.0833,0.0906,0.1003,0.1076,0.1158,0.1257,0.1324,0.1297,0.1263,0.0962,0.0526,0.0201,-0.0143,-0.0125,-0.0251,-0.0249,-0.0247,-0.0226,-0.0203,-0.0272,-0.0272,-0.0272,-0.0272,-0.0272,0,0.0699,0.0745,0.0819,0.0911,0.0994,0.1031,0.1164,0.123,0.1353,0.1427,0.1463,0.1195,0.0921,0.0579,0.0072,-0.0227,-0.0258,-0.0324,-0.0298,-0.0294,-0.0291,-0.0271,-0.033,-0.0331,-0.0332,-0.0333,0,0,0.072,0.0789,0.0824,0.096,0.1035,0.1152,0.1234,0.1332,0.1415,0.1482,0.1487,0.145,0.1046,0.0671,0.0252,-0.0037,-0.0098,-0.0099,-0.002,0.0063,0.007,-0.0218,-0.0179,0,0,0,0,0]}],[{"header":{"parameterUnit":"m.s-1","parameterCategory":2,"la1":30.2991,"la2":30.254,"lo1":-89.0895,"lo2":-89.0444,"dy":0.0017,"dx":0.0017,"nx":28,"ny":28,"refTime":"2025-04-04T21:00:00:Z","depth":"4","parameterNumber":2,"parameterNumberName":"U-component_of_CURRENTS"},"data":[0,0,0,0,0,0,0,0,0,0,0,0,0,0,0,0,0,0,0,0,0,0,0,0,0,0,0,0,0,0,0,0,0,0,0,0,0,0,0,0,0,0,0,0,0,0,0,0,0,0,0,0,0,0,0,0,0,0,0.18,0.18,0,0.187,0.187,0.1871,0.1928,0.1929,0.1929,0.193,0.2013,0.2014,0.2016,0,0,0,0,0,0,0,0,0,0,0,0,0,0.1713,0.1714,0.1799,0.18,0.1802,0.187,0.187,0.1871,0.1928,0.1929,0.193,0.193,0.2012,0.2014,0.2016,0,0,0,0,0,0,0,0,0,0,0,0,0,0.1761,0.1714,0.1799,0.1839,0.1844,0.1869,0.187,0.1871,0.1928,0.1929,0.193,0.1931,0.2012,0.2014,0.2016,0.2007,0,0,0.2023,0.2024,0,0,0,0,0,0,0,0,0.1759,0.1764,0.1832,0.1837,0.1842,0.1893,0.187,0.1918,0.1927,0.1894,0.193,0.1931,0.1974,0.1979,0.1987,0.2011,0.2015,0.2023,0.2024,0.2025,0.2026,0,0,0,0,0,0,0,0.1755,0.1762,0.1825,0.1833,0.1839,0.1853,0.1861,0.1879,0.1926,0.1897,0.1902,0.1912,0.1977,0.1985,0.199,0.2016,0.2023,0.2025,0.2026,0.2027,0.2156,0.2158,0,0,0,0,0,0,0.1749,0.1758,0.1823,0.1828,0.1804,0.1854,0.1863,0.1874,0.1925,0.1935,0.1911,0.1914,0.1981,0.1987,0.1993,0.2091,0.2025,0.2027,0.2029,0.2154,0.2156,0.2158,0,0,0,0,0,0,0.1747,0.1754,0.182,0.1796,0.1806,0.1855,0.1866,0.1875,0.1923,0.1936,0.1946,0.1955,0.1982,0.199,0.2048,0.2091,0.2028,0.203,0.2151,0.2154,0.2157,0.222,0,0,0,0,0,0,0.1744,0.1753,0.1777,0.1796,0.1807,0.1861,0.1866,0.1875,0.1926,0.1932,0.1976,0.1983,0.1983,0.2045,0.205,0.2093,0.2032,0.2149,0.2153,0.2156,0.2215,0.2224,0.2233,0,0,0,0,0,0.1741,0.1762,0.1777,0.1786,0.1832,0.1862,0.187,0.1906,0.1927,0.1953,0.1989,0.1984,0.2073,0.2048,0.2054,0.2098,0.2147,0.2151,0.2156,0.2211,0.2223,0.2232,0,0,0,0,0,0,0.1738,0.177,0.1787,0.1819,0.1852,0.1873,0.1907,0.1928,0.1976,0.1996,0.2006,0.2016,0.2084,0.2083,0.2055,0.2148,0.211,0.2117,0.215,0.2161,0.217,0.2168,0.2034,0,0,0,0,0,0.1747,0.1776,0.1803,0.1835,0.1854,0.1888,0.1913,0.1938,0.1973,0.1998,0.2029,0.2065,0.21,0.2126,0.2152,0.22,0.2199,0.2234,0.2243,0.225,0.2254,0.2289,0.2301,0.2174,0.2174,0.2173,0,0,0.1755,0.1779,0.1797,0.1838,0.1868,0.19,0.1907,0.1957,0.1995,0.1998,0.2073,0.21,0.212,0.2178,0.2208,0.2188,0.2289,0.2256,0.2262,0.2262,0.2295,0.2308,0.2319,0.2177,0.2176,0.2176,0,0,0.1773,0.1809,0.1836,0.1866,0.1918,0.1938,0.1961,0.2006,0.2045,0.2106,0.2124,0.2178,0.223,0.2253,0.2269,0.2343,0.2335,0.2361,0.2404,0.2439,0.245,0.2459,0.2479,0.2489,0.2365,0.2365,0.2365,0,0.1785,0.1818,0.185,0.1882,0.1915,0.1958,0.1994,0.2034,0.2097,0.2132,0.2143,0.2242,0.2262,0.2327,0.2357,0.2363,0.2377,0.236,0.245,0.2458,0.2467,0.2485,0.2495,0.2368,0.2368,0.2368,0.2367,0,0.1808,0.1852,0.1874,0.1928,0.1966,0.2009,0.2059,0.2115,0.2166,0.2201,0.2292,0.2325,0.2381,0.2403,0.2405,0.2482,0.2472,0.2455,0.2418,0.2483,0.2498,0.2508,0.2374,0.2372,0.2371,0.237,0,0,0.1787,0.1873,0.1884,0.192,0.1998,0.2026,0.2102,0.2171,0.2226,0.2298,0.2367,0.2438,0.2466,0.2487,0.2506,0.2541,0.2614,0.2532,0.2532,0.2543,0.2692,0.254,0.2536,0.2619,0.2621,0.2623,0.2681,0,0.18,0.1861,0.1905,0.1976,0.2012,0.2081,0.2141,0.2214,0.2283,0.236,0.242,0.2492,0.2495,0.2537,0.2576,0.2609,0.2643,0.26,0.2634,0.2635,0.2485,0.2543,0.2629,0.2688,0.269,0.2692,0.2693,0,0.1798,0.1844,0.191,0.2002,0.2025,0.2078,0.2186,0.2247,0.2357,0.2414,0.2498,0.2545,0.2631,0.2615,0.2704,0.2681,0.2697,0.271,0.2712,0.2552,0.2501,0.2609,0.271,0.2709,0.2708,0.2706,0.2705,0,0.1748,0.1844,0.19,0.1932,0.2039,0.2095,0.2161,0.2269,0.2335,0.2458,0.252,0.2613,0.2679,0.272,0.2765,0.2747,0.2843,0.2812,0.2687,0.2677,0.2768,0.2757,0.2865,0.2865,0.2865,0.2865,0.2865,0,0.1721,0.1771,0.1888,0.1918,0.1993,0.2078,0.2169,0.2249,0.2372,0.2438,0.2549,0.2608,0.2713,0.2779,0.2794,0.2772,0.2869,0.2701,0.2684,0.2794,0.2786,0.2775,0.2763,0.2867,0.2867,0.2866,0.2866,0,0.1652,0.173,0.1802,0.1927,0.1972,0.2027,0.2171,0.2226,0.2358,0.2451,0.2499,0.2641,0.2713,0.2793,0.2863,0.2794,0.2794,0.2761,0.2886,0.2873,0.2597,0.2588,0.2614,0.2609,0.2605,0.2601,0.2599,0,0.1617,0.1649,0.1792,0.1835,0.19,0.1998,0.2057,0.2204,0.226,0.244,0.2466,0.2604,0.2672,0.2651,0.2744,0.2761,0.2733,0.271,0.2637,0.2592,0.2573,0.2571,0.2568,0.2592,0.2591,0.259,0.2589,0,0.155,0.1619,0.1677,0.1767,0.1842,0.191,0.2009,0.2039,0.2189,0.2333,0.2372,0.2416,0.2495,0.2544,0.2585,0.259,0.2708,0.2666,0.2674,0.2605,0.2565,0.255,0.2553,0.2575,0.2577,0.2578,0.2579,0,0.1504,0.1526,0.1613,0.1676,0.1764,0.179,0.1857,0.1915,0.1991,0.218,0.2185,0.2325,0.2457,0.2457,0.2492,0.2492,0.245,0.2359,0.2382,0.2399,0.2303,0.222,0.2112,0,0,0,0,0,0.1446,0.1458,0.1511,0.1569,0.1647,0.1697,0.1807,0.1874,0.2016,0.1988,0.2081,0.2137,0.2189,0.2272,0.223,0.2412,0.2469,0.2354,0.2378,0.2496,0.2512,0.2421,0,0,0,0,0,0,0.1405,0.1455,0.1471,0.1463,0.148,0.1548,0.161,0.1708,0.17,0.1853,0.1895,0.2013,0.2103,0.2191,0.219,0.2215,0.2188,0.245,0.2445,0.2486,0.2501,0.2514,0.2426,0,0,0,0,0]},{"header":{"parameterUnit":"m.s-1","parameterCategory":2,"la1":30.2991,"la2":30.254,"lo1":-89.0895,"lo2":-89.0444,"dy":0.0017,"dx":0.0017,"nx":28,"ny":28,"refTime":"2025-04-04T21:00:00:Z","depth":"4","parameterNumber":3,"parameterNumberName":"V-component_of_CURRENTS"},"data":[0,0,0,0,0,0,0,0,0,0,0,0,0,0,0,0,0,0,0,0,0,0,0,0,0,0,0,0,0,0,0,0,0,0,0,0,0,0,0,0,0,0,0,0,0,0,0,0,0,0,0,0,0,0,0,0,0,0,0.0037,0.0036,0,-0.0013,-0.0014,-0.0015,-0.0057,-0.0058,-0.0058,-0.0058,-0.0133,-0.0135,-0.0137,0,0,0,0,0,0,0,0,0,0,0,0,0,0.0052,0.0052,0.0037,0.0036,0.0036,-0.0013,-0.0014,-0.0015,-0.0057,-0.0058,-0.0058,-0.0058,-0.0133,-0.0135,-0.0137,0,0,0,0,0,0,0,0,0,0,0,0,0,0.0027,0.0052,0.0037,0.001,0.0007,-0.0013,-0.0014,-0.0015,-0.0057,-0.0058,-0.0058,-0.0059,-0.0132,-0.0135,-0.0137,-0.0144,0,0,-0.0145,-0.0146,0,0,0,0,0,0,0,0,0.0028,0.0026,0.0015,0.0012,0.0009,-0.0028,-0.0036,-0.0059,-0.0057,-0.0035,-0.0058,-0.0059,-0.0099,-0.0104,-0.0115,-0.0148,-0.0151,-0.0145,-0.0147,-0.0148,-0.0149,0,0,0,0,0,0,0,0.003,0.0027,0.0015,0.0014,0.0011,-0.0014,-0.0018,-0.0041,-0.0065,-0.0037,-0.0039,-0.0042,-0.0101,-0.0112,-0.0117,-0.0152,-0.0145,-0.0148,-0.0149,-0.015,-0.0197,-0.0197,0,0,0,0,0,0,0.0043,0.003,0.0017,0.0014,0.002,-0.0014,-0.0018,-0.0017,-0.0065,-0.0072,-0.0041,-0.0044,-0.0108,-0.0114,-0.012,-0.0124,-0.0148,-0.015,-0.0152,-0.0198,-0.0197,-0.0197,0,0,0,0,0,0,0.0043,0.0042,0.0019,0.0022,0.0017,-0.0013,-0.0012,-0.0018,-0.0027,-0.0068,-0.0076,-0.0044,-0.0108,-0.0116,-0.0134,-0.0127,-0.0152,-0.0154,-0.0198,-0.0198,-0.0197,-0.0136,0,0,0,0,0,0,0.0044,0.0043,0.0048,0.0023,0.0017,0.0015,-0.0011,-0.0018,-0.0027,-0.0031,-0.0073,-0.008,-0.0109,-0.013,-0.0137,-0.0131,-0.0156,-0.0198,-0.0198,-0.0197,-0.0138,-0.0133,-0.0129,0,0,0,0,0,0.0045,0.0058,0.0048,0.0047,0.0025,0.0016,0.0011,-0.0014,-0.0027,-0.0026,-0.0054,-0.0079,-0.0132,-0.0132,-0.014,-0.0135,-0.0199,-0.0198,-0.0197,-0.014,-0.0134,-0.0129,0,0,0,0,0,0,0.0066,0.0054,0.0043,0.0051,0.0037,0.0009,0.0009,-0.0008,-0.003,-0.0033,-0.0074,-0.0083,-0.0098,-0.0123,-0.0122,-0.0147,-0.017,-0.0171,-0.0124,-0.0118,-0.0114,-0.01,-0.0158,0,0,0,0,0,0.0074,0.008,0.0062,0.0068,0.0064,0.0038,0.003,0.0016,-0.0006,-0.0017,-0.0045,-0.0076,-0.0101,-0.0114,-0.0141,-0.0151,-0.0181,-0.0154,-0.015,-0.0145,-0.014,-0.0179,-0.0178,-0.0195,-0.0195,-0.0195,0,0,0.0084,0.0078,0.0081,0.0073,0.006,0.0062,0.0032,0.0029,0.0028,-0.0021,-0.0029,-0.006,-0.0101,-0.0114,-0.0123,-0.0134,-0.0155,-0.0145,-0.0141,-0.0138,-0.0178,-0.0177,-0.0175,-0.0194,-0.0195,-0.0195,0,0,0.0108,0.0102,0.0115,0.011,0.0099,0.0084,0.0087,0.0065,0.0052,0.0041,0.0005,-0.0019,-0.0055,-0.0083,-0.0102,-0.0088,-0.013,-0.0097,-0.0063,-0.0101,-0.01,-0.0099,-0.0128,-0.013,-0.0095,-0.0095,-0.0095,0,0.0119,0.0133,0.0117,0.0128,0.013,0.0099,0.0113,0.0097,0.0071,0.0065,0.0048,-0.0007,-0.004,-0.0062,-0.0058,-0.0077,-0.0103,-0.0079,-0.0094,-0.0094,-0.0095,-0.0124,-0.0128,-0.0092,-0.0092,-0.0092,-0.0093,0,0.0151,0.0163,0.0172,0.0176,0.0176,0.0184,0.0165,0.0159,0.014,0.0121,0.0098,0.0051,0.0019,0.0003,-0.0024,-0.0041,-0.006,-0.0084,-0.0105,-0.0089,-0.0122,-0.0126,-0.0087,-0.0088,-0.0089,-0.009,0,0,0.0174,0.0192,0.0195,0.0209,0.0204,0.0209,0.0212,0.0205,0.021,0.0174,0.0172,0.0122,0.0095,0.0071,0.0031,-0.0003,-0.0028,-0.0038,-0.0042,-0.0061,-0.0106,-0.0107,-0.0112,-0.0056,-0.0056,-0.0057,-0.0125,0,0.0203,0.0239,0.0239,0.0272,0.0288,0.0271,0.0279,0.0268,0.025,0.024,0.0185,0.0168,0.0121,0.011,0.0067,-0.0003,-0.0039,-0.0007,-0.0123,-0.0127,-0.0125,-0.0117,-0.0059,-0.0128,-0.013,-0.013,-0.0131,0,0.0233,0.0255,0.0296,0.0325,0.0331,0.0345,0.0356,0.0359,0.0334,0.032,0.0288,0.0246,0.0197,0.0153,0.0041,0.0063,-0.0012,-0.0073,-0.0077,-0.0103,-0.0136,-0.0152,-0.014,-0.0139,-0.0139,-0.0138,-0.0138,0,0.0256,0.0295,0.0332,0.0341,0.0366,0.0382,0.0391,0.0383,0.0401,0.0372,0.0381,0.0305,0.0279,0.0173,0.0055,0.0046,-0.0073,-0.0103,-0.0177,-0.0178,-0.0184,-0.0184,-0.0185,-0.0185,-0.0185,-0.0184,-0.0184,0,0.0284,0.0315,0.0348,0.0368,0.0417,0.0419,0.0462,0.0458,0.0467,0.0493,0.0427,0.0426,0.0283,0.02,0.0077,-0.0056,-0.0058,-0.0167,-0.0195,-0.0156,-0.0152,-0.0187,-0.0187,-0.0187,-0.0186,-0.0186,-0.0186,0,0.0301,0.0322,0.037,0.0411,0.043,0.0463,0.0522,0.0551,0.0552,0.0583,0.0582,0.0519,0.0411,0.0265,0.0094,-0.0013,-0.0151,-0.0201,-0.0134,-0.0158,-0.0237,-0.0233,-0.0289,-0.0289,-0.029,-0.029,-0.0291,0,0.0312,0.0338,0.0403,0.044,0.0463,0.0518,0.0559,0.0587,0.0625,0.0638,0.0656,0.0578,0.0512,0.0286,0.0114,-0.0114,-0.0155,-0.023,-0.0248,-0.0226,-0.0248,-0.0243,-0.0238,-0.0291,-0.0292,-0.0292,-0.0292,0,0.033,0.0354,0.0394,0.0471,0.0527,0.0595,0.0656,0.0695,0.0726,0.0736,0.0725,0.0612,0.0491,0.0301,0.0128,-0.0043,-0.0184,-0.0236,-0.0237,-0.0255,-0.023,-0.025,-0.0245,-0.0294,-0.0293,-0.0293,-0.0293,0,0.0343,0.0372,0.0427,0.0496,0.0572,0.0644,0.0679,0.0728,0.0768,0.0785,0.0778,0.0647,0.0575,0.0338,0.0175,0.0013,-0.0041,-0.0111,-0.0119,-0.012,-0.0058,-0.0001,-0.0013,0,0,0,0,0,0.0351,0.0384,0.0448,0.0523,0.0601,0.0646,0.0731,0.0762,0.08,0.0805,0.0797,0.0686,0.0459,0.0364,0.0203,0.0139,-0.0087,-0.006,-0.0176,-0.0303,-0.0301,-0.0259,0,0,0,0,0,0,0.0355,0.041,0.0441,0.0533,0.0588,0.0677,0.0732,0.0762,0.0769,0.0785,0.0677,0.0628,0.0415,0.0553,0.0196,0.0146,0.0045,-0.016,-0.0164,-0.0304,-0.0302,-0.0301,-0.0257,0,0,0,0,0]}]]